Regional Weather Roundup
Issued by NWS

Home | Current Version | Previous Version | Graphics & Text | Print | Product List | Glossary Off
Versions: 1 2 3 4 5 6 7 8 9 10 11 12 13 14 15 16 17 18 19 20 21 22 23 24 25 26 27 28 29 30 31 32 33 34 35 36 37 38 39 40 41 42 43 44 45 46 47 48 49 50

000
ASUS43 KDMX 250507
RWRIA

WEATHER ROUNDUP FOR IOWA
NATIONAL WEATHER SERVICE DES MOINES IA
1100 PM CST WED DEC 24 2014

NOTE: "FAIR" INDICATES FEW OR NO CLOUDS BELOW 12,000 FEET WITH NO
SIGNIFICANT WEATHER AND/OR OBSTRUCTIONS TO VISIBILITY.

* - THESE STATIONS ARE NOT NWS STATIONS...THUS NOT UNDER NWS
QUALITY CONTROL.  THEY ALSO DO NOT REPORT WEATHER SUCH
AS PRECIPITATION OR FOG.

IAZ001>003-012>014-020>022-031>034-043>046-250600-
   NORTHWEST IOWA

CITY           SKY/WX    TMP DP  RH WIND       PRES   REMARKS
CARROLL *      CLOUDY    28  28 100 SW13G21   29.68F FOG     WCI  18
CHEROKEE *     CLOUDY    28  28 100 S10       29.65S WCI  19
DENISON *      CLOUDY    28  30 100 S13G18    29.66F FOG     WCI  18
LE MARS *      MOCLDY    28  28 100 S14G20    29.62F WCI  17
ORANGE CITY *  CLOUDY    28  27  93 S12       29.60F FOG     WCI  18
SHELDON *      CLOUDY    27  27 100 S14       29.60F FOG     WCI  15
SIOUX CITY     PTCLDY    28  26  92 S10       29.63F WCI  19
SPENCER        CLOUDY    27  24  89 SW13      29.64S WCI  16
STORM LAKE *   MIX PCPN  27  27 100 SW16G23   29.65S WCI  14
$$

IAZ055>058-069>071-079>083-090>094-250600-
   SOUTHWEST IOWA

CITY           SKY/WX    TMP DP  RH WIND       PRES   REMARKS
ATLANTIC *     CLOUDY    30  28  93 S9G17     29.71F WCI  22
AUDUBON *      CLOUDY    28  25  86 S9        29.71S WCI  20
CLARINDA *     CLEAR     30  28  93 S8        29.76F WCI  23
COUNCIL BLFS * CLEAR     28  28 100 S10       29.68F WCI  19
CRESTON *      CLOUDY    30  28  93 SW12      29.74S WCI  21
HARLAN  *      CLOUDY    30  30 100 S12       29.72F WCI  21
LAMONI         CLOUDY    31  28  89 SW12      29.76S WCI  22
RED OAK *      PTCLDY    28  28 100 S8        29.73F WCI  20
SHENANDOAH *   CLEAR     30  28  93 S7        29.74F WCI  23
$$

IAZ047>049-059>061-072>074-084-250600-
   CENTRAL IOWA

CITY           SKY/WX    TMP DP  RH WIND       PRES   REMARKS
AMES           CLOUDY    30  27  88 SW13      29.72S WCI  20
ANKENY *       CLOUDY    32  28  86 W12       29.74R WCI  23
CHARITON *     CLOUDY    32  28  86 SW13G20   29.75S WCI  22
DES MOINES     CLOUDY    32  27  81 W15       29.74S WCI  22
GRINNELL*      CLOUDY    30  28  93 SW14      29.73S WCI  20
KNOXVILLE *    CLOUDY    32  28  86 W13       29.74S WCI  22
MARSHALLTOWN   FLURRIES  30  28  92 SW15      29.70S WCI  19
PELLA *        CLOUDY    32  30  92 W12G18    29.76S WCI  23
PERRY *        CLOUDY    30  30 100 SW12      29.72S WCI  21
$$

IAZ004>006-015-016-023>025-035-036-250600-
   NORTH CENTRAL IOWA

CITY           SKY/WX    TMP DP  RH WIND       PRES   REMARKS
ALGONA *       CLOUDY    27  27 100 SW15G22   29.66F FOG     WCI  15
CLARION *      CLOUDY    28  28 100 SW17      29.67F FOG     WCI  16
ESTHERVILLE    CLOUDY    26  25  96 SW12      29.64R WCI  16
FORT DODGE *   CLOUDY    28  25  86 SW14      29.68F WCI  17
MASON CITY     CLOUDY    28  26  92 W17       29.67S WCI  16
FOREST CITY *  CLOUDY    28  28 100 SW13      29.66R WCI  18
IOWA FALLS *   CLOUDY    30  28  93 SW17      29.70S WCI  18
$$

IAZ007>011-017>019-026>030-037>042-050>054-066-250600-
   NORTHEAST IOWA

CITY           SKY/WX    TMP DP  RH WIND       PRES   REMARKS
CEDAR RAPIDS   CLOUDY    32  30  92 W10       29.71R WCI  24
CHARLES CITY * CLOUDY    32  30  93 SW13G20   29.67R WCI  22
CLINTON *      CLOUDY    34  28  80 W14       29.73R WCI  24
DECORAH *      CLOUDY    32  28  86 VRB5      29.64S WCI  27
DUBUQUE        CLOUDY    33  29  85 W12       29.67R WCI  24
MONTICELLO *   CLOUDY    34  30  86 W12       29.70R WCI  25
OELWEIN *      CLOUDY    32  30  93 W14       29.68S WCI  22
WATERLOO       MIX PCPN  31  29  92 SW15      29.69S WCI  20
$$

IAZ064-065-067-068-078-250600-
   EAST CENTRAL IOWA

CITY           SKY/WX    TMP DP  RH WIND       PRES   REMARKS
DAVENPORT      CLOUDY    34  28  79 W14       29.73R WCI  25
IOWA CITY      FLURRIES  33  29  85 W14       29.76R WCI  23
MT. PLEASANT * CLOUDY    34  28  80 W9        29.77R WCI  26
MUSCATINE *    CLOUDY    36  30  80 W13       29.77R WCI  27
QUAD CITIES    CLOUDY    35  29  78 W13       29.73R WCI  26
$$

IAZ062-063-075>077-085>089-095>099-250600-
   SOUTHEAST IOWA

CITY           SKY/WX    TMP DP  RH WIND       PRES   REMARKS
BURLINGTON     CLOUDY    35  30  82 W8        29.77R WCI  29
FAIRFIELD *    CLOUDY    34  28  80 W15       29.76R WCI  24
FORT MADISON * CLOUDY    36  30  80 W10G16    29.79R WCI  28
KEOKUK *       CLOUDY    36  30  80 W12       29.78R WCI  27
OSKALOOSA *    CLOUDY    32  30  93 W12       29.76S WCI  23
CENTERVILLE *  CLOUDY    32  32 100 SW15      29.78R WCI  22
OTTUMWA        CLOUDY    32  28  85 W13       29.76R WCI  22
WASHINGTON *   CLOUDY    34  34 100 W14G20    29.76R WCI  24
$$

ABBREVIATIONS USED IN REMARKS
   TC - TEMPERATURES IN CELSIUS
  WCI - WIND CHILL INDEX
   HX - HEAT INDEX
  VSB - VISIBILITY
$$



USA.gov is the U.S. government's official web portal to all federal, state and local government web resources and services.